Wind_Speed
6 5 5 7 8 9 12 15 18 20 21 24 25 26 32 36 36 38 39 41 40 39 41 41 36 31 32 31 33 37 40 46 48 48 48 50 50 48 47 46 45 45 44 44
2 1 3 5 7 8 10 14 16 17 19 21 22 23 28 33 35 37 38 38 38 37 39 39 35 32 30 30 31 33 38 43 45 46 44 44 45 45 46 47 46 44 44 44
3 4 4 4 7 8 11 14 15 15 18 19 19 20 26 30 32 34 35 37 37 36 37 36 32 31 29 28 28 29 31 36 40 41 40 39 41 43 44 45 46 45 45 44
7 6 6 8 9 11 12 13 13 15 16 16 16 18 23 26 28 30 32 33 35 34 33 33 31 27 28 27 26 27 28 29 33 37 38 36 37 41 43 44 45 44 44 43
9 10 11 12 13 14 14 15 14 14 14 13 15 14 18 23 25 27 28 29 31 31 31 30 28 24 25 25 25 25 26 27 29 31 34 36 35 36 38 40 42 42 42 42
12 12 13 14 15 16 16 16 15 14 13 12 13 13 16 20 23 24 25 26 29 29 28 27 26 24 24 24 23 23 24 27 28 30 31 33 34 34 35 36 37 38 39 39
14 14 14 16 16 17 17 17 16 16 14 13 13 12 13 16 19 20 22 24 26 26 25 25 25 24 24 24 24 25 25 25 28 30 29 31 33 33 34 35 35 35 36 36
15 16 17 17 16 17 17 17 17 17 15 14 13 11 12 14 15 17 19 21 22 23 23 23 23 23 25 25 25 25 25 26 27 29 29 30 31 33 34 35 36 36 37 37
16 19 20 19 18 17 18 18 16 15 15 15 13 12 12 12 14 16 17 18 18 19 21 22 23 24 24 25 25 25 26 27 28 28 29 30 32 32 33 33 33 34 36 38
16 18 19 20 20 19 18 18 16 15 15 14 13 13 12 11 12 13 14 14 15 17 18 19 22 24 24 25 26 26 26 28 29 30 30 31 32 33 33 34 34 34 35 35
16 17 18 18 19 19 19 17 15 14 13 13 13 13 12 11 11 11 12 12 13 15 16 18 20 22 24 25 27 28 28 30 31 32 33 34 35 35 36 36 36 37 37 37
16 17 18 17 17 17 17 16 15 14 13 12 11 11 11 10 10 10 11 11 13 14 17 19 21 22 24 25 27 29 31 32 34 35 36 37 38 39 39 39 39 39 40 40
18 18 17 17 17 16 16 16 15 14 13 12 11 10 9 8 8 9 10 12 13 15 17 20 22 24 26 28 29 31 33 34 36 37 38 39 40 40 41 41 41 42 42 43
18 17 16 16 15 15 15 14 14 12 11 10 9 8 8 7 8 9 11 13 16 18 20 22 24 27 29 31 33 35 36 38 39 40 41 43 43 44 44 44 44 45 45 46
15 15 14 14 14 13 12 12 11 10 9 8 7 6 7 8 9 11 13 16 18 21 24 27 29 31 33 35 37 38 40 41 42 43 44 45 46 46 47 47 47 48 48 48
13 12 12 12 12 11 10 9 8 7 6 6 5 6 7 9 11 13 15 18 20 23 26 29 32 34 36 38 40 41 43 44 46 47 48 49 49 50 50 51 51 51 51 50
11 11 10 10 9 8 7 6 5 5 4 4 5 7 8 10 12 15 18 20 22 25 28 31 34 36 39 41 42 44 46 47 48 50 51 52 52 53 53 53 53 53 53 53
9 8 7 7 6 5 3 3 3 3 4 6 8 9 11 13 15 18 20 23 25 28 30 33 35 38 41 43 45 47 49 50 51 52 53 54 55 55 55 55 54 54 54 54
7 6 5 5 4 3 2 2 3 5 7 9 10 12 14 17 19 21 23 26 29 31 34 36 38 41 43 45 47 48 50 51 52 53 54 55 55 56 56 56 55 55 54 53
5 4 4 3 2 2 2 3 5 7 8 10 12 14 17 19 21 24 27 29 32 34 37 39 41 43 46 47 49 50 51 52 53 53 54 54 54 54 55 55 55 55 54 52
4 3 3 2 2 3 4 5 7 8 10 11 14 16 19 21 24 26 29 32 34 37 40 42 44 47 48 50 51 52 53 55 55 55 55 55 55 55 55 54 54 54 53 52
4 3 2 2 3 4 5 7 9 10 13 15 17 19 22 25 28 30 33 35 38 40 43 45 47 48 50 51 53 54 55 56 57 57 57 57 57 56 56 55 54 53 52 51
2 1 1 2 3 5 7 9 11 14 16 18 20 23 26 28 31 34 37 39 41 44 45 47 49 50 52 53 54 56 57 57 57 58 59 59 58 58 57 56 55 54 53 52
0 2 3 5 6 8 10 12 14 17 19 21 24 26 29 32 35 37 40 43 45 47 48 50 52 53 55 57 58 59 60 60 61 61 61 60 60 59 58 57 56 55 54 54
3 5 6 8 10 12 14 16 18 20 22 25 27 30 33 36 38 41 44 46 48 49 51 52 53 55 57 58 60 61 62 62 62 62 61 60 59 59 57 57 56 55 54 53
7 8 10 11 13 15 17 19 21 23 26 28 31 33 36 39 42 44 47 49 50 51 52 54 56 58 59 59 60 61 61 62 62 61 60 59 58 57 55 54 53 52 51 51
Wind_Direction
306 284 256 210 205 203 198 195 192 194 196 197 199 203 204 203 204 202 202 201 203 206 208 211 210 210 212 213 214 215 214 215 216 216 218 220 222 223 225 228 230 232 234 235
332 193 165 171 179 177 183 183 181 183 186 189 194 196 200 204 205 202 202 204 205 205 207 209 209 209 208 211 211 210 213 215 216 216 217 219 222 225 228 229 231 234 235 237
105 124 139 149 156 150 160 169 175 175 177 182 186 190 196 202 204 201 201 204 206 208 208 208 210 212 211 210 208 207 210 215 217 218 219 221 223 227 229 232 234 236 236 238
103 101 105 122 133 138 148 158 166 170 172 174 181 188 196 199 201 202 202 204 206 207 211 213 214 217 216 213 213 211 212 217 221 223 224 226 227 230 232 233 234 235 237 238
93 103 108 114 124 132 137 142 144 154 162 169 176 178 185 191 196 200 203 206 208 208 211 214 218 217 215 216 219 220 220 222 222 223 224 226 229 232 232 233 235 238 240 241
100 103 108 116 124 131 133 135 138 144 146 152 156 168 176 186 190 197 203 206 210 214 216 217 218 221 221 224 227 228 230 229 227 228 230 231 233 234 235 236 238 241 241 244
102 103 108 117 122 125 129 134 137 142 144 145 150 159 169 183 191 196 200 204 208 213 216 219 224 230 231 233 236 238 239 239 237 236 237 237 237 239 241 241 243 244 245 246
104 106 108 116 121 121 124 130 136 140 141 143 150 155 164 178 186 191 195 201 206 211 215 222 229 234 237 238 241 243 246 247 245 244 244 244 245 244 246 247 248 249 248 247
113 112 109 113 115 119 122 128 131 135 137 137 140 141 145 161 175 184 193 203 207 214 221 226 230 235 239 242 246 249 251 252 252 253 252 252 252 251 251 252 254 253 253 253
114 113 111 113 113 117 123 124 127 132 137 135 134 139 144 156 170 181 191 201 212 217 221 228 233 239 242 245 248 251 254 256 257 256 257 258 258 258 258 257 258 257 256 257
114 114 115 117 115 115 120 122 124 124 132 138 140 142 143 150 166 182 191 200 211 219 227 233 239 244 247 250 253 255 256 257 260 261 261 261 261 261 261 261 260 260 259 259
118 119 118 117 118 119 121 124 124 126 129 135 141 144 148 153 167 186 201 215 224 229 234 239 245 251 254 255 257 259 260 261 262 263 263 263 263 263 264 263 263 262 261 261
122 122 121 119 119 120 122 125 126 128 131 135 145 151 160 168 180 197 213 225 234 241 245 247 251 254 257 258 259 261 262 263 263 264 265 265 265 265 265 265 265 265 265 265
123 123 124 122 121 121 121 121 125 131 139 144 152 160 173 192 210 226 237 243 246 250 255 257 258 259 261 263 264 265 265 265 266 266 266 266 266 267 266 266 266 266 266 266
125 125 124 124 126 127 127 128 130 135 142 155 170 185 202 220 233 243 250 256 259 260 261 262 263 263 264 264 265 266 266 267 267 267 267 267 267 267 267 267 267 267 267 267
124 126 125 127 128 130 133 135 139 146 156 176 197 218 234 242 251 257 260 264 266 267 268 267 267 268 268 268 268 268 268 268 267 267 268 268 268 268 268 268 267 267 267 267
125 123 124 125 128 130 138 144 155 170 190 211 232 248 256 261 265 268 269 270 270 270 271 272 271 271 271 271 270 270 270 270 270 270 270 270 270 269 269 269 268 268 267 267
129 130 132 133 136 139 149 169 197 228 249 259 265 269 270 273 274 275 276 275 275 276 276 276 276 275 274 273 273 272 272 271 271 271 271 271 271 270 270 269 269 268 268 267
139 140 144 150 152 152 168 219 254 266 271 274 276 278 279 280 281 281 281 280 280 280 279 279 279 278 277 276 275 275 275 274 273 273 273 272 272 271 270 270 269 268 267 267
146 148 152 163 185 222 259 281 287 288 285 284 284 284 284 284 285 285 285 285 284 283 282 282 281 281 280 279 278 277 277 276 275 275 274 273 273 272 271 270 269 268 267 266
155 165 182 208 239 268 284 291 296 297 299 296 294 292 291 289 289 288 288 287 286 286 285 284 284 283 283 282 281 280 279 278 276 276 275 274 274 273 272 270 269 268 267 265
148 163 195 245 272 288 293 297 300 300 300 300 298 296 294 293 292 291 290 289 288 287 286 285 285 284 284 283 282 281 281 280 278 277 276 275 274 273 272 270 269 267 265 264
137 149 271 295 302 303 304 305 304 303 302 301 300 299 298 297 296 295 294 293 291 290 288 287 286 286 285 284 284 283 282 281 280 279 278 277 275 273 271 270 268 266 264 262
272 298 298 301 302 305 305 305 305 305 304 304 303 302 301 300 299 298 296 295 294 292 290 289 288 287 286 286 285 285 284 283 281 280 278 276 275 273 271 269 267 265 263 260
299 298 299 300 303 305 306 306 306 306 306 306 306 305 304 303 302 300 299 297 296 295 293 291 290 290 289 288 287 286 285 284 283 281 280 278 276 274 271 269 267 264 261 258
300 301 302 302 304 304 306 307 307 308 308 308 308 307 307 307 305 304 302 301 299 297 295 294 294 293 292 290 289 288 287 286 284 282 280 279 277 274 271 268 265 261 257 254
Height
5592 5592 5591 5591 5592 5594 5596 5600 5604 5609 5614 5619 5625 5631 5637 5644 5651 5658 5666 5673 5681 5689 5697 5705 5712 5717 5723 5728 5732 5737 5743 5748 5752 5757 5761 5765 5770 5774 5778 5782 5785 5787 5790 5793
5592 5591 5591 5591 5593 5595 5598 5601 5606 5611 5615 5620 5626 5631 5637 5643 5649 5657 5664 5671 5678 5686 5694 5701 5707 5713 5719 5724 5728 5733 5739 5743 5747 5752 5756 5760 5764 5767 5771 5775 5778 5780 5783 5786
5592 5593 5592 5593 5594 5597 5600 5604 5608 5612 5617 5622 5627 5632 5637 5643 5649 5655 5662 5669 5676 5684 5690 5696 5703 5709 5714 5719 5724 5728 5733 5738 5742 5747 5751 5754 5758 5761 5765 5768 5771 5773 5775 5778
5594 5594 5594 5595 5597 5599 5603 5606 5610 5614 5619 5624 5629 5633 5638 5642 5648 5655 5661 5668 5675 5681 5687 5694 5699 5704 5709 5715 5719 5723 5727 5732 5737 5741 5745 5749 5752 5755 5758 5761 5763 5765 5767 5769
5597 5596 5597 5598 5600 5603 5606 5609 5613 5617 5622 5626 5630 5635 5639 5643 5649 5655 5661 5667 5673 5679 5685 5691 5696 5700 5705 5710 5714 5719 5723 5726 5731 5735 5739 5743 5746 5748 5750 5753 5755 5758 5760 5762
5600 5599 5600 5601 5603 5606 5609 5613 5617 5621 5625 5629 5632 5637 5641 5644 5649 5655 5661 5666 5672 5678 5683 5688 5693 5697 5702 5706 5710 5714 5717 5721 5725 5729 5732 5736 5738 5741 5743 5745 5748 5750 5752 5754
5603 5603 5603 5605 5607 5610 5613 5617 5621 5625 5628 5631 5635 5638 5642 5646 5651 5656 5661 5666 5672 5677 5681 5686 5690 5694 5699 5703 5706 5709 5712 5715 5719 5722 5725 5729 5731 5733 5735 5738 5740 5742 5744 5746
5606 5607 5607 5609 5611 5614 5617 5621 5625 5628 5631 5634 5637 5640 5644 5647 5652 5656 5661 5667 5671 5676 5680 5684 5688 5692 5695 5699 5702 5705 5707 5710 5713 5715 5718 5721 5723 5726 5727 5730 5732 5734 5736 5737
5609 5611 5611 5613 5615 5618 5621 5624 5628 5631 5634 5637 5640 5643 5646 5649 5653 5658 5662 5666 5671 5675 5679 5682 5686 5689 5692 5695 5698 5700 5703 5705 5707 5709 5711 5713 5716 5718 5720 5721 5723 5724 5726 5728
5613 5614 5616 5617 5620 5622 5625 5627 5631 5634 5637 5639 5642 5645 5649 5651 5655 5658 5662 5666 5670 5674 5677 5680 5683 5686 5688 5691 5693 5695 5697 5699 5701 5703 5704 5706 5708 5710 5712 5714 5715 5716 5717 5719
5617 5619 5620 5622 5623 5626 5629 5631 5634 5637 5639 5643 5645 5650 5651 5653 5656 5659 5662 5666 5669 5672 5675 5678 5680 5682 5684 5686 5688 5690 5691 5693 5694 5696 5697 5698 5700 5702 5703 5704 5706 5707 5708 5709
5620 5622 5623 5625 5627 5629 5631 5634 5637 5640 5642 5645 5648 5653 5652 5655 5657 5660 5663 5665 5668 5671 5673 5675 5677 5679 5680 5681 5683 5684 5685 5686 5687 5688 5689 5690 5691 5692 5693 5694 5696 5697 5698 5698
5623 5625 5627 5629 5633 5633 5634 5636 5639 5642 5644 5647 5649 5654 5653 5656 5658 5660 5663 5664 5666 5668 5670 5671 5673 5674 5675 5676 5677 5677 5678 5678 5679 5679 5680 5681 5681 5682 5683 5684 5684 5685 5686 5687
5627 5628 5631 5633 5634 5635 5637 5639 5641 5644 5646 5648 5650 5653 5654 5656 5658 5659 5661 5663 5664 5665 5666 5667 5668 5668 5669 5669 5669 5670 5670 5670 5670 5670 5670 5670 5671 5671 5672 5672 5673 5673 5674 5675
5630 5631 5632 5634 5636 5637 5639 5641 5643 5645 5647 5649 5651 5652 5654 5655 5657 5658 5659 5660 5660 5660 5661 5661 5661 5661 5661 5661 5661 5661 5660 5660 5660 5659 5659 5659 5658 5659 5659 5659 5660 5661 5661 5662
5632 5634 5635 5637 5638 5639 5641 5643 5644 5646 5647 5648 5650 5651 5652 5653 5654 5655 5656 5656 5656 5655 5655 5654 5653 5653 5652 5652 5651 5650 5649 5649 5648 5648 5647 5646 5646 5646 5646 5646 5646 5647 5647 5647
5634 5636 5638 5639 5640 5641 5643 5644 5645 5646 5647 5648 5649 5650 5650 5651 5651 5651 5651 5651 5651 5650 5649 5647 5646 5644 5643 5641 5640 5638 5637 5636 5635 5634 5633 5632 5632 5631 5631 5631 5631 5631 5632 5633
5637 5638 5639 5640 5642 5643 5646 5644 5645 5645 5646 5646 5647 5647 5647 5647 5647 5647 5646 5645 5644 5643 5641 5639 5637 5635 5633 5630 5628 5626 5624 5622 5620 5619 5618 5617 5616 5616 5615 5615 5615 5615 5616 5617
5638 5639 5640 5641 5642 5643 5644 5644 5644 5645 5645 5644 5644 5644 5644 5643 5643 5642 5640 5638 5636 5634 5631 5629 5626 5623 5621 5618 5615 5612 5610 5608 5605 5604 5602 5601 5600 5599 5598 5598 5598 5599 5599 5600
5638 5639 5641 5641 5641 5642 5644 5643 5643 5644 5643 5642 5641 5641 5640 5638 5637 5636 5633 5630 5627 5624 5621 5618 5615 5611 5608 5605 5601 5598 5595 5593 5590 5588 5586 5584 5583 5582 5581 5581 5581 5581 5582 5583
5639 5639 5640 5641 5641 5642 5642 5641 5642 5642 5642 5639 5638 5636 5635 5633 5631 5629 5625 5622 5618 5615 5611 5607 5603 5599 5594 5590 5586 5583 5579 5576 5574 5571 5569 5567 5566 5565 5564 5563 5563 5564 5565 5566
5639 5639 5640 5640 5640 5643 5640 5639 5639 5639 5636 5635 5633 5631 5629 5627 5624 5620 5616 5612 5608 5604 5599 5594 5590 5585 5580 5575 5571 5567 5562 5558 5555 5553 5551 5549 5547 5546 5545 5545 5545 5546 5547 5549
5639 5640 5639 5640 5641 5639 5638 5637 5636 5634 5632 5630 5628 5625 5623 5619 5615 5611 5607 5602 5597 5591 5586 5580 5575 5570 5564 5559 5554 5550 5545 5540 5537 5534 5531 5529 5528 5527 5526 5526 5527 5528 5529 5531
5639 5638 5638 5638 5637 5636 5635 5633 5632 5630 5627 5625 5622 5619 5615 5611 5606 5601 5596 5590 5584 5577 5571 5565 5559 5554 5548 5542 5536 5531 5526 5521 5518 5514 5511 5509 5507 5506 5506 5506 5507 5508 5510 5512
5638 5637 5636 5635 5635 5633 5631 5629 5627 5625 5622 5618 5615 5611 5606 5601 5596 5590 5583 5576 5569 5562 5555 5549 5542 5536 5530 5523 5517 5510 5505 5500 5496 5493 5490 5488 5486 5485 5485 5485 5486 5487 5490 5492
5635 5635 5634 5633 5631 5629 5627 5624 5622 5618 5615 5611 5607 5602 5596 5590 5584 5577 5569 5562 5554 5547 5539 5532 5525 5518 5511 5504 5497 5490 5484 5479 5475 5471 5468 5466 5465 5464 5464 5464 5466 5467 5470 5473